[[{"header":{"parameterUnit":"m.s-1","parameterCategory":1,"la1":30.2991,"la2":30.254,"lo1":-89.0895,"lo2":-89.0444,"dy":0.0017,"dx":0.0017,"nx":28,"ny":28,"refTime":"2024-08-06T21:00:00:Z","depth":0,"parameterNumber":2,"parameterNumberName":"U-component_of_WINDS"},"data":[0,0,0,0,0,0,0,0,0,0,0,0,0,0,0,0,0,0,0,0,0,0,0,0,0,0,0,0,0,0,0,0,0,0,0,0,0,0,0,0,0,0,0,0,0,0,0,0,0,0,0,0,0,0,0,0,0,0,5.7402,5.7403,0,5.7487,5.7488,5.7489,5.7507,5.7506,5.7506,5.7505,5.759,5.7593,5.7596,0,0,0,0,0,0,0,0,0,0,0,0,0,5.7257,5.7259,5.7402,5.7403,5.7404,5.7487,5.7488,5.7489,5.7507,5.7506,5.7505,5.7505,5.7589,5.7593,5.7596,0,0,0,0,0,0,0,0,0,0,0,0,0,5.7328,5.726,5.7402,5.7423,5.7426,5.7486,5.7488,5.7489,5.7507,5.7506,5.7505,5.7504,5.7588,5.7592,5.7596,5.7641,0,0,5.7609,5.7611,0,0,0,0,0,0,0,0,5.7324,5.7334,5.7419,5.7422,5.7425,5.7485,5.7468,5.754,5.7507,5.7476,5.7505,5.7504,5.7556,5.7563,5.7581,5.7645,5.7649,5.761,5.7612,5.7614,5.7615,0,0,0,0,0,0,0,5.7319,5.733,5.7436,5.742,5.7424,5.7429,5.7438,5.7481,5.752,5.7479,5.748,5.749,5.7557,5.7576,5.7583,5.765,5.761,5.7613,5.7616,5.7618,5.7757,5.7758,0,0,0,0,0,0,5.7311,5.7326,5.7433,5.7438,5.7371,5.7432,5.7442,5.7467,5.752,5.7527,5.7491,5.7491,5.757,5.7578,5.7586,5.7642,5.7614,5.7618,5.7621,5.7756,5.7757,5.7759,0,0,0,0,0,0,5.7307,5.732,5.743,5.7383,5.7397,5.7436,5.7463,5.7469,5.7488,5.7529,5.7536,5.7503,5.7569,5.758,5.7628,5.7645,5.762,5.7624,5.7755,5.7756,5.7758,5.7754,0,0,0,0,0,0,5.7303,5.7319,5.7336,5.7383,5.7399,5.747,5.7464,5.7471,5.7496,5.7496,5.7542,5.7549,5.7569,5.7621,5.7632,5.765,5.7627,5.7753,5.7755,5.7757,5.7753,5.7755,5.7758,0,0,0,0,0,5.7298,5.7331,5.7337,5.7349,5.7421,5.7471,5.748,5.7503,5.7497,5.7514,5.7541,5.7548,5.7642,5.7626,5.7638,5.7658,5.7752,5.7755,5.7757,5.7751,5.7755,5.7758,0,0,0,0,0,0,5.7283,5.7337,5.7344,5.7393,5.7427,5.7474,5.7496,5.7506,5.7542,5.7541,5.7568,5.7578,5.7624,5.7646,5.7628,5.7705,5.7697,5.7702,5.7688,5.7692,5.7694,5.7687,5.7631,0,0,0,0,0,5.7286,5.7322,5.7367,5.7406,5.7423,5.7457,5.7479,5.7494,5.753,5.7545,5.7575,5.7609,5.7647,5.7671,5.7708,5.7757,5.7767,5.7777,5.778,5.7781,5.7785,5.7813,5.7818,5.7767,5.7767,5.7767,0,0,5.7292,5.7326,5.7346,5.7404,5.7432,5.7468,5.7469,5.7507,5.7534,5.755,5.7597,5.7621,5.7662,5.771,5.7734,5.773,5.7802,5.7785,5.7786,5.7788,5.7816,5.7821,5.7825,5.7769,5.7768,5.7768,0,0,5.732,5.7349,5.7385,5.7414,5.7458,5.748,5.7489,5.7535,5.7551,5.7599,5.7613,5.7646,5.771,5.7739,5.7762,5.7804,5.7812,5.7816,5.7828,5.7855,5.7859,5.7863,5.7877,5.7882,5.782,5.782,5.782,0,5.7321,5.7376,5.7402,5.744,5.7466,5.7484,5.7521,5.7548,5.76,5.7617,5.7614,5.7696,5.7724,5.7781,5.7791,5.781,5.782,5.7809,5.7857,5.786,5.7864,5.7879,5.7884,5.782,5.782,5.782,5.782,0,5.7375,5.7414,5.7438,5.7489,5.7518,5.7555,5.7587,5.7612,5.7626,5.765,5.7699,5.7735,5.7779,5.7794,5.7808,5.7853,5.785,5.7851,5.7843,5.7869,5.7883,5.7888,5.782,5.782,5.782,5.782,0,0,5.7394,5.7462,5.747,5.7494,5.7545,5.7575,5.7614,5.7658,5.768,5.7717,5.7749,5.7805,5.7807,5.7833,5.785,5.7875,5.7906,5.7873,5.7875,5.7877,5.7958,5.7956,5.7962,5.7912,5.7914,5.7915,5.7955,0,5.7427,5.7497,5.7523,5.758,5.7616,5.7636,5.767,5.7704,5.7728,5.7762,5.7789,5.7827,5.7828,5.7844,5.7869,5.7897,5.7922,5.7895,5.7943,5.7944,5.793,5.7969,5.7966,5.8002,5.796,5.7961,5.7962,0,5.7475,5.7513,5.7574,5.7622,5.7638,5.7668,5.7712,5.7745,5.7785,5.7801,5.7831,5.7848,5.7889,5.7881,5.7939,5.7919,5.7941,5.7959,5.7961,5.7964,5.7953,5.7972,5.8014,5.8019,5.7971,5.797,5.7969,0,5.7481,5.7549,5.7594,5.7614,5.7671,5.7692,5.7716,5.7756,5.7782,5.7821,5.7838,5.7881,5.7904,5.7937,5.7965,5.7956,5.802,5.8014,5.8034,5.8033,5.8045,5.8043,5.8089,5.8062,5.8062,5.8062,5.8061,0,5.7515,5.7551,5.7598,5.7625,5.7667,5.7697,5.7738,5.7764,5.7799,5.7833,5.7853,5.7884,5.7919,5.7955,5.7977,5.8022,5.8032,5.8046,5.8051,5.8043,5.8041,5.8056,5.8054,5.8063,5.8063,5.8062,5.8062,0,5.7528,5.7561,5.7611,5.7662,5.7676,5.7704,5.7747,5.7775,5.7801,5.7843,5.7855,5.7895,5.7938,5.797,5.8025,5.8041,5.8088,5.8094,5.8074,5.8077,5.8095,5.8092,5.815,5.8159,5.8127,5.8127,5.8127,0,5.7547,5.7575,5.7629,5.7654,5.7678,5.7717,5.7744,5.7776,5.7803,5.7853,5.7874,5.7919,5.7957,5.8025,5.8059,5.8102,5.8109,5.8126,5.8115,5.8106,5.8108,5.8105,5.8108,5.8127,5.8127,5.8127,5.8127,0,5.7576,5.7591,5.7629,5.7674,5.7706,5.7742,5.7779,5.7797,5.7836,5.7865,5.791,5.7939,5.7997,5.8041,5.8088,5.8114,5.8127,5.8131,5.8138,5.8129,5.8116,5.8122,5.8077,5.8129,5.8129,5.8129,5.8128,5.8128,5.7592,5.7618,5.7661,5.7703,5.7735,5.7769,5.7798,5.7828,5.7866,5.7916,5.7933,5.7979,5.8021,5.8085,5.8112,5.8149,5.8148,5.8158,5.816,5.8162,5.8161,5.8112,5.8158,5.8158,5.8158,5.8158,5.8158,0,5.7621,5.765,5.7689,5.774,5.7774,5.7785,5.7827,5.7854,5.7894,5.7932,5.7969,5.8022,5.8065,5.8104,5.815,5.8172,5.8179,5.8182,5.818,5.8186,5.8159,5.8148,5.8176,5.8176,5.8176,5.8176,5.8176,5.8176,5.7641,5.7686,5.7707,5.7769,5.7798,5.7844,5.7867,5.7899,5.7929,5.7986,5.8023,5.8049,5.8087,5.8136,5.8177,5.8187,5.8203,5.8205,5.8216,5.819,5.8188,5.8185,5.8175,5.8208,5.8208,5.824,5.824,5.824]},{"header":{"parameterUnit":"m.s-1","parameterCategory":1,"la1":30.2991,"la2":30.254,"lo1":-89.0895,"lo2":-89.0444,"dy":0.0017,"dx":0.0017,"nx":28,"ny":28,"refTime":"2024-08-06T21:00:00:Z","depth":0,"parameterNumber":3,"parameterNumberName":"V-component_of_WINDS"},"data":[0,0,0,0,0,0,0,0,0,0,0,0,0,0,0,0,0,0,0,0,0,0,0,0,0,0,0,0,0,0,0,0,0,0,0,0,0,0,0,0,0,0,0,0,0,0,0,0,0,0,0,0,0,0,0,0,0,0,-1.805,-1.8049,0,-1.8001,-1.8,-1.7999,-1.8023,-1.8024,-1.8025,-1.8026,-1.7972,-1.797,-1.7967,0,0,0,0,0,0,0,0,0,0,0,0,0,-1.8161,-1.8158,-1.805,-1.8049,-1.8048,-1.8001,-1.8,-1.7999,-1.8022,-1.8024,-1.8026,-1.8027,-1.7973,-1.797,-1.7967,0,0,0,0,0,0,0,0,0,0,0,0,0,-1.8112,-1.8158,-1.805,-1.8054,-1.8054,-1.8001,-1.8,-1.7999,-1.8022,-1.8024,-1.8026,-1.8028,-1.7974,-1.7971,-1.7967,-1.7905,0,0,-1.7955,-1.7953,0,0,0,0,0,0,0,0,-1.8115,-1.8108,-1.8054,-1.8054,-1.8054,-1.802,-1.8019,-1.7967,-1.8022,-1.8034,-1.8026,-1.8029,-1.7986,-1.7982,-1.7968,-1.7902,-1.79,-1.7954,-1.7952,-1.795,-1.7949,0,0,0,0,0,0,0,-1.8118,-1.811,-1.803,-1.8053,-1.8053,-1.8058,-1.8053,-1.801,-1.8,-1.8033,-1.8035,-1.8029,-1.7987,-1.7972,-1.7967,-1.7899,-1.7955,-1.7951,-1.7949,-1.7947,-1.778,-1.7779,0,0,0,0,0,0,-1.8122,-1.8113,-1.8032,-1.8029,-1.809,-1.8054,-1.8049,-1.8029,-1.8001,-1.7998,-1.8027,-1.803,-1.7978,-1.7972,-1.7965,-1.7891,-1.795,-1.7947,-1.7945,-1.7783,-1.778,-1.7778,0,0,0,0,0,0,-1.8124,-1.8114,-1.8034,-1.8071,-1.8061,-1.805,-1.8027,-1.8027,-1.8012,-1.7996,-1.7994,-1.8014,-1.7979,-1.7971,-1.792,-1.7889,-1.7945,-1.7941,-1.7785,-1.7782,-1.7779,-1.7742,0,0,0,0,0,0,-1.8127,-1.8115,-1.8092,-1.807,-1.8059,-1.799,-1.8026,-1.8024,-1.8006,-1.8009,-1.7984,-1.7981,-1.798,-1.7926,-1.7916,-1.7885,-1.7938,-1.7788,-1.7784,-1.778,-1.7746,-1.7738,-1.7731,0,0,0,0,0,-1.8131,-1.8082,-1.8091,-1.8081,-1.803,-1.7988,-1.7981,-1.7982,-1.8003,-1.7979,-1.797,-1.7982,-1.7895,-1.792,-1.791,-1.7877,-1.779,-1.7785,-1.778,-1.7749,-1.7739,-1.7731,0,0,0,0,0,0,-1.8099,-1.808,-1.8088,-1.8032,-1.8012,-1.7992,-1.7962,-1.7972,-1.7944,-1.7948,-1.7949,-1.7943,-1.789,-1.7879,-1.7908,-1.7816,-1.7845,-1.7838,-1.7825,-1.7816,-1.7809,-1.7812,-1.7935,0,0,0,0,0,-1.8086,-1.8054,-1.8039,-1.799,-1.798,-1.7973,-1.7954,-1.7957,-1.7935,-1.7926,-1.7913,-1.789,-1.7858,-1.7837,-1.7806,-1.7745,-1.7739,-1.7717,-1.771,-1.7704,-1.7697,-1.7664,-1.7654,-1.7762,-1.7762,-1.7763,0,0,-1.8057,-1.8043,-1.8022,-1.7983,-1.7968,-1.7934,-1.7965,-1.7928,-1.7903,-1.792,-1.7872,-1.7861,-1.7836,-1.778,-1.7755,-1.7769,-1.7667,-1.7698,-1.7693,-1.769,-1.7658,-1.7648,-1.7639,-1.7759,-1.776,-1.776,0,0,-1.7988,-1.7974,-1.7932,-1.7917,-1.7894,-1.7889,-1.7879,-1.7859,-1.7853,-1.7805,-1.7817,-1.7787,-1.7731,-1.7713,-1.7696,-1.7622,-1.7632,-1.7612,-1.7573,-1.7541,-1.7532,-1.7525,-1.7497,-1.7488,-1.7606,-1.7606,-1.7606,0,-1.7955,-1.7906,-1.7909,-1.7871,-1.7854,-1.787,-1.7827,-1.7811,-1.7779,-1.7766,-1.7783,-1.7714,-1.7698,-1.7638,-1.762,-1.7606,-1.7594,-1.7614,-1.7533,-1.7526,-1.7519,-1.7493,-1.7483,-1.7603,-1.7604,-1.7604,-1.7604,0,-1.7866,-1.7832,-1.7801,-1.777,-1.7749,-1.7709,-1.7706,-1.7684,-1.7689,-1.7683,-1.7633,-1.7615,-1.7582,-1.7568,-1.7571,-1.7508,-1.7518,-1.7534,-1.7563,-1.7506,-1.7482,-1.7472,-1.76,-1.7601,-1.7601,-1.7602,0,0,-1.7774,-1.7747,-1.7736,-1.7722,-1.7699,-1.7672,-1.7632,-1.7601,-1.7581,-1.7559,-1.7525,-1.7479,-1.7494,-1.7475,-1.7477,-1.7449,-1.739,-1.7468,-1.7468,-1.7454,-1.7319,-1.7306,-1.7295,-1.7398,-1.7396,-1.7394,-1.7321,0,-1.7702,-1.7635,-1.7637,-1.7573,-1.7541,-1.7557,-1.7523,-1.7504,-1.7497,-1.7469,-1.7462,-1.7428,-1.7451,-1.744,-1.7413,-1.7403,-1.7363,-1.7409,-1.7365,-1.7364,-1.737,-1.7282,-1.7268,-1.72,-1.7311,-1.731,-1.7309,0,-1.761,-1.7585,-1.7519,-1.75,-1.7487,-1.7456,-1.7428,-1.7401,-1.738,-1.7377,-1.7357,-1.7363,-1.7323,-1.7355,-1.7298,-1.7329,-1.7312,-1.7304,-1.7302,-1.7297,-1.7332,-1.7274,-1.7178,-1.7167,-1.7294,-1.7295,-1.7296,0,-1.7548,-1.7499,-1.7453,-1.7441,-1.7418,-1.7396,-1.7386,-1.7367,-1.7348,-1.7323,-1.731,-1.728,-1.7264,-1.724,-1.7238,-1.7261,-1.7181,-1.7213,-1.7177,-1.7177,-1.7158,-1.7159,-1.7057,-1.7149,-1.7149,-1.7149,-1.7149,0,-1.7468,-1.7426,-1.7425,-1.7396,-1.735,-1.7354,-1.7308,-1.7299,-1.7283,-1.7252,-1.7264,-1.7234,-1.7234,-1.7204,-1.7203,-1.7156,-1.7149,-1.7145,-1.7144,-1.7143,-1.7143,-1.713,-1.7135,-1.7146,-1.7147,-1.7147,-1.7148,0,-1.7391,-1.7389,-1.7339,-1.7323,-1.7318,-1.7284,-1.7269,-1.7242,-1.7237,-1.7199,-1.719,-1.7182,-1.7147,-1.7144,-1.7103,-1.7102,-1.7046,-1.7051,-1.7053,-1.7053,-1.7018,-1.7021,-1.6903,-1.6887,-1.699,-1.6989,-1.6988,0,-1.7339,-1.7308,-1.7288,-1.7269,-1.7258,-1.7227,-1.7208,-1.721,-1.719,-1.7164,-1.714,-1.7107,-1.7081,-1.7025,-1.7015,-1.6984,-1.6988,-1.6949,-1.6983,-1.6983,-1.6986,-1.6988,-1.6984,-1.6942,-1.6941,-1.694,-1.6939,0,-1.7247,-1.7248,-1.7221,-1.7193,-1.7171,-1.7149,-1.7128,-1.7112,-1.7112,-1.7088,-1.7054,-1.7034,-1.6993,-1.696,-1.693,-1.6918,-1.6928,-1.6929,-1.6919,-1.6916,-1.6918,-1.6916,-1.7034,-1.6931,-1.6932,-1.6932,-1.6933,-1.6933,-1.7181,-1.7154,-1.7136,-1.7105,-1.7091,-1.7071,-1.7045,-1.7038,-1.7009,-1.6977,-1.698,-1.6942,-1.6922,-1.6883,-1.687,-1.6839,-1.6852,-1.6837,-1.6834,-1.683,-1.6826,-1.6924,-1.6834,-1.6834,-1.6834,-1.6834,-1.6835,0,-1.7089,-1.7079,-1.7051,-1.7022,-1.6998,-1.7012,-1.699,-1.6968,-1.6935,-1.6916,-1.6891,-1.6851,-1.6819,-1.6808,-1.6776,-1.6754,-1.6758,-1.6746,-1.6747,-1.6744,-1.6816,-1.6828,-1.6743,-1.6743,-1.6743,-1.6743,-1.6743,-1.6743,-1.7038,-1.6993,-1.6992,-1.6939,-1.6929,-1.6893,-1.6879,-1.6861,-1.6846,-1.6802,-1.6776,-1.6769,-1.6753,-1.6721,-1.6692,-1.669,-1.6677,-1.6663,-1.6662,-1.673,-1.6739,-1.6747,-1.6758,-1.666,-1.666,-1.6592,-1.6591,-1.6591]}]]